Location: Prosper
(33.2362°N, 96.8011°W)
Time: 11:02:57
(UTC+00:00)

Cosmos 773 Rocket - Pass Details

Date: 03 December 2021
Orbit: 746 x 776 km, 74.1° (Epoch: 24 January)

Event Time Altitude Azimuth Distance (km) Brightness Sun altitude
Rises 12:41:15 0° 345° (NNW) 3,230 6.9 -7.2°
Reaches altitude 10° 12:43:39 10° 348° (NNW) 2,296 6.1 -6.7°
Maximum altitude 12:48:51 73° 73° (ENE) 793 4.3 -5.7°
Drops below altitude 10° 12:53:58 10° 158° (SSE) 2,264 7.2 -4.8°
Sets 12:56:19 0° 160° (SSE) 3,181 7.9 -4.3°
